CAPE
1248 1303 3124 3009 3070 3326 3461 3525 3498 3387 2769 2647 2424 2352 2365 2152 2208 2128 2059 2141 1941 1744 1499 1334 1219 1125 1310 1320 1308 1503 867 1383 1411 1346 1265 1192 1054 944 637 875 1089 547 686
1567 1637 2876 3164 2966 3166 3381 3433 3602 3501 3132 2855 2748 2516 2475 2411 2387 2227 2195 2202 2096 1962 1625 1456 1423 1508 1633 1302 1499 1684 1286 1601 1433 1466 1333 1199 1049 640 275 341 1061 791 366
1330 1517 1643 3187 3274 2894 3136 3574 3824 3750 3286 3031 3007 2634 2603 2499 2489 1952 1936 2112 2176 2040 1829 1811 1533 1609 1627 1552 1517 1389 1392 1542 1499 1275 1437 657 564 238 819 1016 769 844 424
1287 1221 1595 3046 3302 2965 3075 3438 3522 3573 3105 3223 2985 2791 2739 2668 2495 2275 2249 2121 2000 2004 1872 1811 1703 1661 1622 1467 1745 1495 1654 1303 1191 1425 1210 615 115 345 946 200 488 589 728
1347 1410 2079 3197 3148 2868 3039 3403 3517 3477 3165 3088 3003 2848 2682 2566 2413 2357 2273 2040 2082 2061 1890 1990 1772 1646 1360 1657 1754 1678 1308 1056 1112 1323 1233 949 431 473 932 298 697 402 583
1261 1801 2527 3123 2669 2526 2746 2978 3077 3026 3031 2951 2826 2561 2408 2425 2362 2314 2266 2093 1988 2083 1903 1869 2000 1833 1621 1736 1718 1560 1432 1441 1424 1352 945 817 1213 1234 1004 809 285 900 711
1186 2464 1964 3284 3152 2953 2840 2865 2788 2794 2760 2686 2569 2569 2806 2871 2632 2366 2080 2086 2006 1729 1674 1680 1857 1765 1723 1871 1813 1713 1756 1725 1260 1148 1042 845 1165 1563 914 457 568 810 704
1255 2043 1776 3125 3137 2773 2632 2873 2892 2688 2630 2564 2812 2913 2972 2651 2646 2579 2384 2100 1878 1800 1690 1428 1674 1777 1776 1994 1855 1810 1810 1732 1179 710 810 1369 1424 1923 1055 715 468 700 543
1450 1973 1973 2031 2526 2712 2657 2784 2857 2797 2718 2782 2868 2971 2792 2775 2542 2400 2261 2220 1922 1731 1587 1525 1590 1934 1757 2057 1949 2006 1653 1600 1278 855 554 1439 1965 1852 1066 1233 707 1003 898
1957 1971 2275 2324 2299 2319 2480 3003 2820 2827 2572 2519 2451 2439 2525 2349 2245 2502 2130 2308 2028 1827 1750 1635 1630 2080 1839 1817 2277 1832 1694 1792 792 913 839 1254 1936 1718 1410 1264 1125 498 891
1960 1761 2518 2488 2784 2785 2513 2546 2936 2789 2790 2790 2671 2601 2360 1830 2273 2561 2052 1891 1996 1869 1755 1633 1706 1722 2071 1775 1813 1840 1582 691 499 668 725 1628 2014 1559 1440 1397 1429 799 969
1547 1459 2103 2297 2668 2567 3019 3269 2298 2283 2344 2445 2399 2502 2482 2595 2415 1690 2308 2233 1946 1958 1848 1677 1560 1523 1163 921 1331 1626 884 469 890 774 1100 1479 1875 1509 1556 1659 1579 1757 1112
1922 1772 1949 2351 2694 2753 2765 3225 2903 3423 3320 2104 2240 2636 2276 2288 2331 1853 2640 1996 1528 1632 1193 1526 1336 1079 1042 542 1243 1151 846 644 1148 1613 1127 1850 1898 1455 1595 1637 1771 1295 1374
1933 2068 2083 2941 2299 2503 2541 2263 3238 2419 2466 2738 3196 2698 2854 2421 2383 2015 1555 1590 1920 2901 1687 1434 1360 1250 1615 1482 1750 1181 1198 1131 745 698 1288 1947 1861 1956 1510 1825 1496 1285 1093
1492 1623 2238 2949 2641 2736 2749 2437 2564 2939 1556 2476 2074 1903 1151 1338 1877 634 158 158 814 1601 1644 1591 1176 1687 1773 1696 1597 1509 1318 1144 1077 823 887 2174 2003 1746 1899 1878 1728 1317 970
1493 1651 2009 2275 2652 2498 2938 2678 3549 2308 1782 1633 1891 1671 1847 1361 1402 671 345 151 358 971 1512 699 1556 2042 1177 1426 1699 1400 1609 1862 1450 1327 813 1117 2194 1795 1771 1757 1857 1434 657
1711 1881 2268 2595 2460 2733 2433 2282 2190 1542 1262 2062 1588 2575 1916 2018 1622 1297 866 751 314 303 178 190 713 1717 1669 1915 1296 1755 1327 1829 1689 1444 1532 1362 1420 1886 1928 1807 2147 1895 1493
1994 2142 2296 1863 2291 2493 2918 2189 1635 1649 1564 2108 2099 2625 2044 2356 2239 2026 1590 1191 812 101 0 44 1207 920 1724 1675 1956 1709 1652 1461 1434 1736 2192 1412 812 840 1714 1701 1700 1768 281
2370 2644 2606 2110 1948 2924 2346 1941 1862 1702 1793 1362 965 1295 2126 1941 1648 1883 1289 1499 1495 716 689 1759 1403 1489 1528 1231 1297 1719 1691 1831 1266 1264 1548 1558 1492 1444 1195 1462 1133 1123 404
2779 3000 2437 1591 1943 2861 2620 2341 1628 1254 2012 1657 1766 2000 2193 2136 1861 2532 2432 1604 3073 2000 1325 1484 1669 1535 983 814 475 881 1779 1346 1387 1310 1521 2125 2251 1613 1362 2227 1650 569 798
3024 2977 2491 2224 1827 1482 1237 1733 1914 1271 2238 2017 2223 1688 1774 1912 1784 2364 2600 2464 2518 2281 2146 2581 2020 2213 1033 963 1571 931 622 848 1618 1554 1399 1249 1812 1700 1187 2382 1589 1461 823
2804 2396 2171 1862 905 784 1657 1606 2080 1745 1909 2165 2540 1920 2026 1680 1552 1817 2302 2099 2331 2233 2354 2381 2293 2191 1949 2213 1049 612 388 135 658 1333 1404 2353 1731 2391 1667 2008 1790 1721 1068
2518 2034 2055 1169 855 339 911 1720 2815 2304 2314 2576 1947 981 915 988 922 1262 1298 1966 1918 2487 2407 1777 1970 1571 1740 2103 1681 652 235 86 107 1916 2087 1462 1919 2804 2047 2164 1396 1894 1776
2228 2162 1771 1797 1082 571 478 474 1777 2340 1759 1137 746 813 1063 888 661 872 1115 874 1736 2260 1875 1929 2178 1583 1807 1722 1937 1109 1625 994 660 573 2104 2200 2572 2441 2354 1238 755 1064 2123
1387 1411 1595 1455 1048 1263 1455 2043 2252 2448 610 582 631 819 1636 1751 917 969 738 771 1061 1872 1926 1619 1884 2129 1974 1883 1595 1998 1536 465 786 750 1043 867 1477 1287 2037 1549 1208 1537 1916
1606 1230 1304 1551 1460 1487 1495 1862 1995 1038 842 766 909 716 416 370 800 972 900 1012 1526 1271 1303 1996 1859 1616 1885 844 1395 1718 1761 1079 545 814 1435 997 322 725 992 699 1434 1556 1672
CIN
-0 -43 -0 -0 -1 -0 -1 -2 -1 -0 -8 -6 -4 -0 -0 -0 -1 -2 -4 -1 -0 -0 -0 -0 -0 -1 -0 -0 -0 -0 -17 -1 -0 -0 -0 -0 -0 -0 -8 -7 -6 -0 -0
-0 -12 -0 -0 -1 -1 -0 -2 -0 -0 -3 -4 -1 -1 -0 -0 -0 -2 -1 -2 -1 -0 -0 -1 -2 -0 -1 -0 -0 -0 -0 -0 -0 -0 -0 -0 -0 -5 -8 -10 -1 -0 -0
-0 -19 -21 -0 -0 -4 -0 -0 -0 -0 -0 -1 -0 -0 -0 -0 -0 -2 -2 -1 -0 -0 -0 -0 -0 -0 -1 -0 -1 -1 -0 -0 -0 -3 -2 -0 -0 -10 -2 -0 -13 -0 -0
-0 -30 -22 -0 -0 -0 -1 -0 -1 -0 -0 -0 -0 -0 -0 -0 -0 -0 -0 -1 -0 -0 -0 -0 -0 -0 -0 -0 -0 -2 -0 -1 -20 -1 -0 -3 -3 -9 -0 -10 -3 -1 -0
-0 -1 -15 -0 -0 -0 -0 -0 -0 -0 -0 -0 -0 -0 -0 -0 -0 -0 -0 -2 -2 -0 -0 -0 -0 -0 -1 -2 -0 -1 -0 -4 -23 -28 -2 -10 -4 -8 -0 -8 -0 -3 -1
-1 -0 -13 -0 -0 -3 -1 -0 -0 -0 -0 -0 -0 -0 -0 -0 -0 -0 -0 -0 -2 -0 -0 -0 -0 -0 -0 -1 -0 -0 -0 -7 -32 -8 -10 -7 -5 -9 -0 -0 -3 -0 -1
-0 -6 -19 -0 -0 -0 -1 -0 -0 -0 -0 -0 -0 -0 -0 -0 -0 -0 -0 -2 -2 -4 -4 -0 -0 -0 -0 -0 -0 -0 -0 -11 -4 -8 -12 -1 -3 -6 -2 -0 -0 -0 -0
-0 -0 -6 -0 -0 -0 -0 -0 -0 -0 -0 -0 -0 -0 -0 -0 -0 -0 -0 -0 -0 -1 -3 -4 -4 -0 -0 -0 -0 -0 -0 -8 -9 -5 -7 -12 -22 -2 -0 -0 -1 -0 -0
-0 -0 -0 -0 -0 -0 -0 -0 -0 -0 -0 -0 -0 -0 -0 -1 -0 -2 -1 -0 -1 -1 -3 -4 -2 -0 -2 -1 -0 -0 -2 -17 -23 -13 -3 -28 -32 -6 -0 -0 -0 -0 -0
-6 -1 -1 -0 -0 -0 -0 -0 -1 -0 -0 -0 -0 -0 -0 -9 -4 -4 -9 -7 -4 -1 -0 -0 -2 -0 -0 -1 -0 -1 -0 -7 -39 -12 -7 -29 -36 -14 -0 -0 -0 -1 -0
-1 -0 -15 -2 -0 -0 -0 -1 -0 -1 -0 -0 -0 -0 -1 -0 -7 -12 -3 -14 -5 -3 -1 -3 -1 -2 -0 -0 -0 -0 -0 -0 -0 -53 -70 -71 -48 -20 -0 -0 -0 -0 -0
-1 -0 -0 -0 -0 -0 -0 -0 -0 -0 -0 -0 -0 -0 -0 -16 -32 -28 -9 -26 -15 -5 -0 -1 -6 -2 -8 -0 -1 -0 -3 -1 -3 -2 -37 -33 -40 -23 -0 -0 -0 -0 -1
-0 -1 -1 -0 -0 -0 -1 -4 -14 -0 -6 -23 -2 -0 -0 -10 -9 -3 -20 -1 -1 -11 -0 -6 -7 -3 -9 -29 -0 -1 -2 -1 -1 -9 -10 -46 -42 -26 -0 -0 -0 -0 -0
-5 -3 -10 -3 -0 -0 -36 -0 -0 -0 -0 -18 -4 -1 -0 -2 -7 -12 -0 -2 -5 -5 -3 -32 -9 -0 -5 -3 -2 -0 -17 -3 -1 -1 -58 -55 -49 -19 -4 -0 -4 -1 -1
-0 -0 -1 -9 -0 -0 -0 -1 -0 -1 -185 -14 -5 -24 -40 -3 -0 -44 -91 -89 -28 -21 -46 -8 -41 -2 -1 -0 -0 -0 -0 -2 -6 -4 -6 -29 -43 -32 -6 -2 -1 -1 -2
-0 -0 -0 -0 -0 -0 -0 -0 -0 -0 -1 -0 -8 -14 -15 -5 -6 -40 -96 -115 -53 -38 -2 -21 -8 -17 -0 -0 -2 -2 -0 -0 -0 -5 -2 -2 -34 -39 -22 -4 -1 -0 -8
-0 -0 -0 -0 -0 -0 -0 -0 -1 -0 -1 -8 -22 -4 -0 -0 -0 -29 -28 -49 -67 -186 -227 -56 -16 -1 -18 -10 -0 -0 -0 -1 -2 -0 -3 -0 -32 -41 -35 -14 -0 -0 -0
-0 -0 -0 -2 -0 -0 -0 -0 -0 -0 -2 -14 -23 -15 -1 -0 -0 -0 -0 -0 -25 -267 -27 -64 -19 -3 -2 -24 -16 -25 -1 -0 -1 -1 -0 -0 -0 -22 -43 -27 -15 -2 -55
-0 -0 -1 -21 -8 -0 -8 -19 -0 -0 -0 -0 -0 -0 -2 -1 -0 -0 -0 -1 -7 -45 -45 -3 -4 -27 -20 -1 -0 -20 -21 -4 -0 -0 -0 -0 -5 -9 -26 -42 -37 -38 -43
-0 -0 -4 -24 -6 -6 -0 -11 -1 -0 -1 -0 -26 -4 -7 -5 -0 -0 -0 -0 -0 -7 -14 -5 -17 -1 -0 -0 -0 -0 -13 -1 -0 -0 -0 -0 -1 -15 -0 -3 -24 -13 -1
-0 -0 -0 -0 -26 -39 -24 -25 -0 -1 -10 -4 -10 -1 -3 -0 -0 -0 -1 -0 -0 -1 -0 -4 -11 -0 -0 -0 -2 -0 -0 -0 -1 -0 -0 -0 -0 -0 -2 -4 -20 -1 -12
-0 -1 -1 -9 -78 -58 -22 -48 -1 -0 -0 -2 -0 -0 -0 -1 -0 -0 -0 -0 -0 -0 -0 -0 -0 -1 -0 -1 -0 -0 -0 -0 -1 -1 -11 -1 -0 -0 -0 -0 -1 -0 -21
-4 -2 -0 -29 -32 -95 -76 -11 -0 -0 -1 -1 -4 -0 -0 -0 -0 -2 -0 -0 -0 -0 -0 -0 -1 -0 -0 -1 -0 -0 -0 -0 -2 -23 -0 -5 -0 -1 -3 -1 -15 -0 -5
-1 -0 -0 -1 -0 -39 -43 -52 -0 -1 -1 -0 -4 -1 -0 -0 -1 -1 -1 -0 -0 -0 -0 -0 -0 -0 -0 -0 -0 -0 -0 -0 -1 -2 -7 -3 -2 -2 -5 -37 -37 -21 -4
-43 -38 -20 -21 -31 -1 -0 -0 -0 -1 -0 -4 -0 -0 -0 -2 -0 -3 -0 -0 -0 -0 -0 -0 -0 -0 -0 -1 -0 -1 -0 -0 -0 -0 -0 -14 -1 -0 -8 -45 -64 -31 -10
-49 -73 -54 -5 -6 -2 -0 -0 -0 -15 -16 -13 -9 -0 -3 -0 -5 -0 -0 -0 -0 -0 -0 -0 -0 -0 -0 -0 -2 -0 -1 -0 -0 -0 -0 -4 -8 -41 -20 -101 -47 -41 -52
Wind_Speed
21 23 17 16 16 16 16 17 18 17 13 14 13 11 10 10 8 7 8 6 7 5 3 1 2 3 5 3 3 2 3 6 8 10 10 9 11 13 13 14 19 5 6
25 21 17 18 17 18 17 15 13 15 18 16 13 11 10 11 8 7 8 8 7 7 6 5 2 3 3 4 2 2 3 5 7 9 10 9 11 12 12 15 6 9 8
25 23 20 18 16 17 17 16 13 14 14 13 11 10 9 8 6 9 7 7 9 8 8 7 6 2 1 4 2 3 2 3 7 11 15 11 8 11 8 6 7 11 11
24 20 21 17 15 15 16 17 15 15 15 14 13 12 11 9 11 12 7 7 7 9 10 9 8 6 1 1 3 2 2 3 9 10 11 8 7 9 7 7 8 10 10
22 20 22 17 17 17 19 19 18 18 19 18 18 17 15 13 11 9 7 12 7 9 11 9 9 8 6 4 3 3 1 3 7 12 11 7 4 6 7 8 10 12 14
22 24 20 18 16 15 18 20 19 18 20 20 20 20 19 17 13 8 7 6 12 10 10 10 10 10 7 7 5 4 1 5 9 8 6 4 9 8 8 11 8 6 9
17 23 18 14 13 12 13 14 16 17 17 17 17 16 15 16 16 13 7 7 13 9 11 11 12 12 10 8 7 6 4 7 7 7 8 7 7 8 7 6 6 9 9
14 21 17 13 12 12 12 12 13 15 15 16 15 15 15 13 11 11 9 10 11 17 12 9 9 11 12 10 10 9 6 9 6 7 5 9 13 11 8 9 8 8 10
11 16 14 12 13 13 10 11 11 12 13 13 13 14 12 12 14 12 13 13 12 10 12 11 7 10 11 9 11 10 8 11 16 10 6 9 14 12 10 11 10 8 9
3 14 14 12 12 11 13 12 11 12 12 14 14 12 10 11 11 11 8 11 15 13 9 11 5 15 11 10 13 14 9 11 13 15 10 15 17 14 10 11 10 10 9
7 9 15 11 12 13 11 13 11 10 10 13 15 15 12 9 13 18 18 18 16 15 11 7 7 9 15 12 13 10 12 11 8 9 8 16 18 15 11 12 9 10 8
11 11 16 14 12 12 10 11 12 12 10 10 13 13 9 15 17 20 19 18 14 12 12 10 9 10 11 20 19 13 13 15 16 15 17 16 17 16 12 12 14 14 5
22 16 11 12 14 12 11 11 10 12 9 7 13 15 12 12 16 14 20 15 11 10 10 13 16 13 14 13 14 15 12 10 17 17 16 21 20 17 13 14 17 19 6
20 16 19 13 12 11 13 9 8 9 10 12 7 12 13 13 14 15 18 18 13 14 13 12 14 17 18 14 7 6 13 18 19 17 21 23 21 16 12 16 16 17 8
25 18 21 18 13 8 10 4 3 7 12 20 11 8 7 7 10 14 19 20 10 17 21 18 6 20 17 13 14 8 8 9 16 19 21 25 21 17 13 13 16 19 15
28 27 28 15 15 11 14 10 5 3 3 11 10 11 13 8 10 12 14 22 15 14 27 17 10 17 18 14 15 15 14 7 13 15 21 21 18 16 15 14 15 16 11
35 35 23 14 13 13 14 13 9 10 7 4 6 14 15 15 15 10 11 11 11 18 25 22 8 18 18 18 16 18 15 12 12 5 18 15 15 14 15 19 18 18 11
35 30 32 12 10 13 16 12 8 7 10 9 11 16 18 20 16 13 11 9 17 16 nan nan 5 14 20 20 21 22 20 14 13 12 10 8 10 12 14 20 23 23 19
33 32 29 27 18 13 21 17 13 11 6 5 12 15 20 18 20 20 13 19 20 20 16 13 13 22 19 14 15 22 21 18 14 15 12 10 10 10 17 19 19 18 17
39 31 31 32 26 18 18 19 12 12 10 6 6 10 16 19 18 18 18 18 25 25 20 24 20 17 15 13 17 20 21 19 16 17 18 17 18 11 4 14 24 24 19
31 29 30 33 27 13 17 16 9 8 10 11 9 19 13 13 16 21 21 18 17 16 13 18 20 18 15 17 23 19 18 18 18 16 20 17 25 15 9 9 26 17 16
29 28 29 30 31 13 17 15 9 8 7 12 11 12 16 18 19 21 14 12 12 14 13 12 15 17 17 24 21 18 19 19 21 21 19 22 19 19 13 14 12 14 18
32 27 28 31 29 15 23 13 3 1 6 11 15 16 19 15 16 14 12 13 11 12 14 16 17 18 17 21 20 22 23 nan 26 30 24 19 23 27 20 20 16 14 15
30 25 25 33 25 18 4 9 3 6 7 9 13 18 17 16 18 13 11 12 11 11 11 15 17 17 18 17 21 22 21 26 27 24 27 21 25 26 23 27 21 19 17
28 23 23 28 25 16 11 7 5 10 9 11 12 17 22 20 20 16 10 13 12 13 11 13 15 15 16 14 15 21 20 20 21 21 21 22 23 21 24 30 27 20 17
28 23 21 28 23 14 11 11 11 8 9 10 15 17 16 11 14 10 8 12 13 13 11 11 10 13 13 17 18 16 20 21 21 18 22 23 19 19 20 18 24 27 17
Wind_Direction
303 304 294 280 278 274 280 289 300 297 278 286 286 282 296 299 285 264 245 248 259 256 251 276 87 93 142 127 127 25 15 36 30 24 24 25 33 39 39 43 39 344 359
290 304 294 284 277 276 275 282 294 287 285 289 282 283 298 307 295 256 250 256 237 243 234 219 171 88 180 128 94 340 3 354 21 22 21 24 40 52 66 84 53 2 9
297 297 306 290 288 287 290 290 291 290 286 292 295 298 302 301 261 256 251 243 242 234 229 233 230 258 342 101 42 328 348 352 22 31 27 34 44 58 67 59 2 23 11
304 315 310 296 289 289 289 291 292 293 295 294 298 300 293 291 276 281 280 265 234 231 214 221 229 242 230 199 300 326 309 17 53 49 56 27 19 51 47 41 36 30 13
311 323 296 301 299 304 299 297 291 290 291 288 290 293 294 292 292 301 282 254 251 231 218 207 220 234 238 221 238 295 325 63 78 86 97 119 34 21 31 24 30 26 30
325 305 306 308 303 301 298 294 291 290 287 286 285 283 281 285 284 285 287 266 213 225 232 206 220 231 231 243 220 221 196 86 78 99 157 216 159 337 12 39 8 4 359
327 289 308 304 304 303 299 290 294 293 291 289 287 285 280 273 270 270 263 222 201 197 219 219 215 221 228 234 236 209 201 87 108 90 118 261 293 322 346 351 345 355 2
336 308 305 303 301 305 301 298 295 290 290 287 292 293 284 286 280 274 260 240 220 220 204 191 213 224 224 243 226 222 191 135 101 201 233 257 297 304 320 318 327 348 354
328 311 320 324 319 317 307 307 299 297 298 295 295 294 292 288 274 261 251 245 236 213 215 199 216 233 234 233 256 230 206 153 155 188 155 270 295 303 320 317 315 322 336
328 324 319 331 329 322 315 322 319 305 300 296 294 285 287 285 287 279 264 273 258 248 219 205 215 220 235 229 246 236 209 171 161 201 187 246 289 303 319 320 329 314 319
355 344 310 315 321 319 316 314 308 300 297 292 292 292 301 316 306 303 278 265 248 248 249 226 244 256 230 232 246 230 219 199 210 186 228 285 290 298 307 312 312 312 310
6 347 327 331 336 321 296 298 323 312 316 316 299 288 309 242 272 261 279 282 263 256 256 266 270 276 290 232 230 247 225 186 216 203 238 263 284 295 305 313 303 311 279
355 322 323 326 337 324 313 284 264 284 260 272 295 296 283 263 268 256 261 273 262 305 279 292 283 278 294 218 196 222 240 212 218 215 242 280 283 294 307 312 304 322 265
336 335 311 323 322 331 286 318 285 286 294 265 272 281 286 266 271 249 248 238 251 254 219 245 256 273 272 287 248 260 226 210 233 227 256 274 282 294 306 318 325 328 241
358 360 314 313 313 326 297 257 314 1 219 308 303 300 317 329 310 269 252 237 240 237 250 169 201 271 264 272 296 291 252 205 213 228 231 275 281 296 306 313 335 336 338
359 359 349 324 312 330 317 322 304 90 172 276 322 329 358 2 342 327 270 243 242 251 231 187 257 255 265 267 268 276 272 227 244 238 241 257 280 297 316 324 329 336 16
352 348 347 351 321 319 318 314 326 332 349 313 333 328 359 357 349 356 345 316 264 250 249 244 104 272 266 247 250 275 269 258 276 245 237 212 246 303 319 327 321 330 3
347 2 358 343 320 315 304 296 318 308 329 325 313 324 347 343 352 338 321 308 285 253 nan nan 310 275 259 252 252 251 265 252 262 274 259 222 218 275 312 332 332 334 342
347 349 350 341 331 293 281 289 288 314 330 297 321 335 338 347 352 344 333 309 307 296 287 283 283 272 276 272 254 255 255 261 276 264 273 266 222 219 280 322 323 320 334
343 352 349 340 335 288 268 280 282 306 290 285 312 308 321 333 344 328 314 307 298 296 298 301 288 285 298 285 275 251 245 254 268 265 251 252 250 249 235 274 276 298 352
338 345 347 339 325 278 240 241 255 284 308 339 7 334 339 340 342 330 325 316 312 300 301 288 281 282 258 255 248 239 233 257 266 277 256 242 257 270 278 286 270 280 314
332 341 339 333 345 260 197 213 234 286 315 332 346 338 341 342 343 345 331 315 312 304 301 285 281 283 270 254 253 247 238 247 268 275 272 252 253 251 249 279 243 283 286
333 343 339 344 356 2 208 200 167 278 336 353 345 348 325 329 343 332 346 339 316 298 296 304 292 296 281 265 258 243 242 nan 241 252 271 257 250 260 257 259 266 267 276
326 339 342 347 350 11 62 165 108 346 4 288 355 324 342 340 334 346 339 353 353 318 298 295 300 297 288 279 261 234 228 226 238 243 243 256 250 255 261 255 255 245 258
319 329 337 345 347 334 342 61 347 31 324 347 338 338 349 350 343 355 341 344 355 332 315 307 301 301 282 257 262 234 234 247 250 238 241 242 249 254 264 276 275 278 286
322 322 338 353 1 14 27 38 29 352 351 346 334 342 318 335 306 314 341 344 345 330 320 311 306 303 284 260 261 236 232 237 246 247 246 242 254 253 250 255 266 277 269